Tracking 29967 objects as of 5-Dec-2024
HD Live streaming from Space Station
objects crossing your sky now

IRIDIUM 33 DEB

Track IRIDIUM 33 DEB now!
10-day predictions


NORAD ID: 34696
Int'l Code: 1997-051KT
Perigee: 681.4 km
Apogee: 827.9 km
Inclination: 86.2 °
Period: 99.8 minutes
Semi major axis: 7125 km
RCS: 0.0073 m2 (small)
Launch date: September 14, 1997
Source: United States (US)
Launch site: TYURATAM MISSILE AND SPACE COMPLEX (TTMTR)

Note: This is SATELLITE DEBRIS
Your satellite tracking list
Your tracking list is empty




NASA's NSSDC Master Catalog

Two Line Element Set (TLE):
1 34696U 97051KT  24339.85801700  .00022894  00000-0  63523-2 0  9996
2 34696  86.1996 197.6494 0102785 341.2412  30.2711 14.43323235812543
Source of the keplerian elements: AFSPC